User: anonymous   Login
Location: Oshawa
(43.9000°N, 78.8670°W)
Time: 17:05:13
(UTC-04:00)
Language:

PAYLOAD A - Orbit

View from above orbital plane
View from above orbital plane
View from above satellite
View from above satellite

Ground track
Ground track

The orbit data is extracted from the following two-line orbital elements,

1 27840U 03031A   16235.63314392 -.00000028 +00000-0 +49402-5 0  9991
2 27840 098.1974 240.1873 0097158 299.5246 059.6281 14.38861566690287
Epoch (UTC): 22 August 2016 15:11:43
Eccentricity: 0.0097158
inclination: 98.1974°
perigee height: 693 km
apogee height: 831 km
right ascension of ascending node: 240.1873°
argument of perigee: 299.5246°
revolutions per day: 14.38861566
mean anomaly at epoch: 59.6281°
orbit number at epoch: 69028

The dashed part of the orbit path shows where the satellite is in the earth's shadow,  

DLR